N747SB MMMX-MMGL

Flight info

Callsign N747SB
Flight time N/A
Altitude 40000
Route OVAGO3A OVAGO UT123 IGSON IGSON1B
Aircraft B748/H-SDE3FGHIM1M2RWXY/LB1

Departure

Time 2026-05-06 03:59
Airport Mexico City Benito Juárez International Airport (MMMX)

Arrival

Time N/A
Airport Guadalajara International Airport (MMGL)
Time Latitude Longitude Altitude Speed Heading
2026-05-06 03:19 19.42426 -99.07770 7312 ft 0 kts 239°
2026-05-06 03:24 19.42431 -99.07761 7312 ft 0 kts 239°
2026-05-06 03:24 19.42439 -99.07747 7312 ft 2 kts 239°
2026-05-06 03:25 19.42448 -99.07731 7312 ft 2 kts 239°
2026-05-06 03:25 19.42457 -99.07716 7312 ft 2 kts 239°
2026-05-06 03:25 19.42461 -99.07708 7312 ft 0 kts 239°
2026-05-06 03:28 19.42461 -99.07709 7312 ft 1 kts 240°
2026-05-06 03:28 19.42458 -99.07727 7312 ft 3 kts 271°
2026-05-06 03:29 19.42463 -99.07740 7312 ft 2 kts 298°
2026-05-06 03:29 19.42464 -99.07741 7312 ft 0 kts 301°
2026-05-06 03:29 19.42487 -99.07762 7312 ft 15 kts 319°
2026-05-06 03:30 19.42578 -99.07827 7312 ft 0 kts
2026-05-06 03:30 19.42576 -99.07827 7312 ft 0 kts 357°
2026-05-06 03:30 19.42573 -99.07827 7312 ft 0 kts 352°
2026-05-06 03:30 19.42570 -99.07827 7312 ft 0 kts 347°
2026-05-06 03:31 19.42567 -99.07827 7312 ft 0 kts 341°
2026-05-06 03:31 19.42565 -99.07826 7312 ft 0 kts 337°
2026-05-06 03:31 19.42563 -99.07826 7312 ft 0 kts 333°
2026-05-06 03:31 19.42561 -99.07825 7312 ft 0 kts 329°
2026-05-06 03:32 19.42559 -99.07824 7312 ft 0 kts 327°
2026-05-06 03:32 19.42558 -99.07824 7312 ft 0 kts 324°
2026-05-06 03:32 19.42558 -99.07823 7312 ft 0 kts 323°
2026-05-06 03:32 19.42557 -99.07823 7312 ft 0 kts 321°
2026-05-06 03:33 19.42556 -99.07822 7312 ft 0 kts 320°
2026-05-06 03:33 19.42555 -99.07822 7312 ft 0 kts 318°
2026-05-06 03:33 19.42555 -99.07821 7312 ft 0 kts 316°
2026-05-06 03:33 19.42554 -99.07821 7312 ft 0 kts 315°
2026-05-06 03:34 19.42554 -99.07820 7312 ft 0 kts 313°
2026-05-06 03:34 19.42553 -99.07820 7312 ft 0 kts 312°
2026-05-06 03:34 19.42553 -99.07819 7312 ft 0 kts 310°
2026-05-06 03:34 19.42552 -99.07819 7312 ft 0 kts 309°
2026-05-06 03:35 19.42551 -99.07818 7312 ft 0 kts 307°
2026-05-06 03:35 19.42550 -99.07817 7312 ft 0 kts 304°
2026-05-06 03:35 19.42550 -99.07816 7312 ft 0 kts 303°
2026-05-06 03:36 19.42549 -99.07816 7312 ft 0 kts 301°
2026-05-06 03:36 19.42549 -99.07815 7312 ft 0 kts 300°
2026-05-06 03:36 19.42549 -99.07814 7312 ft 0 kts 298°
2026-05-06 03:36 19.42548 -99.07814 7312 ft 0 kts 297°
2026-05-06 03:37 19.42548 -99.07813 7312 ft 0 kts 295°
2026-05-06 03:37 19.42547 -99.07813 7312 ft 0 kts 294°
2026-05-06 03:41 19.42547 -99.07812 7312 ft 0 kts 293°
2026-05-06 03:42 19.42547 -99.07811 7312 ft 0 kts 291°
2026-05-06 03:42 19.42546 -99.07810 7312 ft 0 kts 289°
2026-05-06 03:42 19.42546 -99.07809 7312 ft 0 kts 287°
2026-05-06 03:43 19.42545 -99.07808 7312 ft 0 kts 285°
2026-05-06 03:43 19.42545 -99.07807 7312 ft 0 kts 283°
2026-05-06 03:43 19.42545 -99.07806 7312 ft 0 kts 281°
2026-05-06 03:44 19.42544 -99.07805 7312 ft 0 kts 278°
2026-05-06 03:44 19.42549 -99.07857 7312 ft 13 kts 271°
2026-05-06 03:44 19.42543 -99.07922 7312 ft 5 kts 253°
2026-05-06 03:45 19.42527 -99.07964 7312 ft 8 kts 245°
2026-05-06 03:45 19.42516 -99.07988 7312 ft 0 kts 243°
2026-05-06 03:45 19.42514 -99.07992 7297 ft 2 kts 243°
2026-05-06 03:45 19.42503 -99.08014 7312 ft 5 kts 243°
2026-05-06 03:46 19.42495 -99.08056 7312 ft 6 kts 271°
2026-05-06 03:46 19.42513 -99.08092 7311 ft 6 kts 314°
2026-05-06 03:46 19.42539 -99.08107 7312 ft 0 kts 336°
2026-05-06 03:46 19.42540 -99.08108 7312 ft 1 kts 336°
2026-05-06 03:47 19.42555 -99.08117 7312 ft 4 kts 327°
2026-05-06 03:47 19.42583 -99.08142 7312 ft 7 kts 312°
2026-05-06 03:47 19.42596 -99.08186 7312 ft 6 kts 269°
2026-05-06 03:47 19.42577 -99.08234 7312 ft 9 kts 243°
2026-05-06 03:48 19.42562 -99.08301 7312 ft 10 kts 271°
2026-05-06 03:48 19.42583 -99.08383 7312 ft 13 kts 291°
2026-05-06 03:48 19.42620 -99.08476 7313 ft 8 kts 293°
2026-05-06 03:48 19.42621 -99.08478 7313 ft 0 kts 293°
2026-05-06 03:51 19.42625 -99.08489 7313 ft 3 kts 293°
2026-05-06 03:52 19.42627 -99.08494 7313 ft 0 kts 293°
2026-05-06 03:52 19.42634 -99.08510 7313 ft 4 kts 293°
2026-05-06 03:52 19.42644 -99.08535 7313 ft 7 kts 293°
2026-05-06 03:53 19.42651 -99.08549 7314 ft 0 kts 303°
2026-05-06 03:53 19.42664 -99.08563 7314 ft 3 kts 322°
2026-05-06 03:53 19.42678 -99.08568 7314 ft 3 kts 347°
2026-05-06 03:53 19.42699 -99.08563 7313 ft 3 kts 26°
2026-05-06 03:54 19.42718 -99.08544 7313 ft 6 kts 50°
2026-05-06 03:54 19.42750 -99.08492 7313 ft 11 kts 58°
2026-05-06 03:54 19.42759 -99.08476 7312 ft 3 kts 60°
2026-05-06 03:54 19.42777 -99.08443 7312 ft 7 kts 60°
2026-05-06 03:56 19.42781 -99.08435 7312 ft 8 kts 60°
2026-05-06 03:56 19.42788 -99.08423 7312 ft 9 kts 59°
2026-05-06 03:56 19.42788 -99.08422 7312 ft 9 kts 59°
2026-05-06 03:57 19.42793 -99.08415 7312 ft 9 kts 56°
2026-05-06 03:57 19.42796 -99.08410 7312 ft 10 kts 55°
2026-05-06 03:57 19.42829 -99.08358 7312 ft 8 kts 58°
2026-05-06 03:57 19.42854 -99.08318 7313 ft 9 kts 59°
2026-05-06 03:58 19.42889 -99.08251 7312 ft 13 kts 62°
2026-05-06 03:58 19.42962 -99.08110 7312 ft 38 kts 60°
2026-05-06 03:58 19.43233 -99.07622 7314 ft 117 kts 57°
2026-05-06 03:58 19.43764 -99.06667 7316 ft 190 kts 59°
2026-05-06 03:59 19.44571 -99.05367 7871 ft 219 kts 53°
2026-05-06 03:59 19.45541 -99.04201 9466 ft 207 kts 43°
2026-05-06 03:59 19.46810 -99.03246 9758 ft 252 kts 26°
2026-05-06 03:59 19.47354 -99.03004 9742 ft 272 kts 19°
2026-05-06 04:00 19.47494 -99.02954 9745 ft 277 kts 18°
2026-05-06 04:00 19.47506 -99.02951 9740 ft 277 kts 18°